Weather in Velikoye Selo

Russia / Novgorod Oblast     57°41′30″N   31°44′23″E
temp.,
°C
wind,
m/s
gust,
m/s
humid.,
%
clouds,
%
prec.,
mm/h
press.,
hPa
HPBL,
m
3 march, wed
wed300:000nw4119133 0.1 1019502
03:00−1wnw3109229 0.2 1020409
06:00−2w3109550 0.0 1018415
09:000w598772 0.0 1018667
12:00+1w5883100 0.0 1017752
15:00+3w5974100 0.0 10141073
18:00+2wsw5128199 0.0 1011849
21:00+2w5148699 0.1 1008808
4 march, thu
thu400:00+2w61390100 0.5 1005970
03:00+2wnw51289100 0.6 1004930
06:00−1nw3108492 0.3 1003489
09:00−2nw377796 0.3 1004514
12:000nnw246452 0.0 1003779
15:00+1nnw345934 0.0 10021127
18:00−1nw22751 0.1 100250
21:00−2nw498645 0.4 1004726
5 march, fri
fri500:00−4nw4880100 0.1 1005766
03:00−5nw4778100 0.1 1007848
06:00−5nw3779100 0.1 1008875
09:00−5nw4676100 0.1 1009913
12:00−4nw4664100 0.1 10101093
15:00−4nw4658100 0.1 10121337
18:00−5nw3566100 0.1 10121030
21:00−6nnw3680100 0.2 1015693
6 march, sat
sat600:00−7n3577100 0.1 1017731
03:00−8nnw148057 0.1 1018316
06:00−9w13880 0.0 1018117
09:00−7w368235 0.0 1019414
12:00−4w356794 0.0 10181016
15:00−2wsw475897 0.1 10161415
18:00−3sw41059100 0.0 10121339
21:00−4sw71586100 0.3 10071432
7 march, sun
sun700:00−3wsw81788100 1.0 10011429
03:00−2wsw81691100 1.7 9961231
06:00−3nw91575100 2.1 9931310
09:00−6wsw3115476 2.2 9951517
12:00−5wnw71274100 1.2 9941582
15:00−5w71458100 1.6 9941932
18:00−6w71583100 0.4 9951375
21:00−6nnw61274100 0.9 9981381